Location: Newark
(1.4333°S, 50.7333°W)
Time: 20:30:55
(UTC+00:00)

N. Korean satellite - Visible Passes

Search period start: 27 September 2020 00:00
Search period end: 07 October 2020 00:00
Orbit: 455 x 503 km, 97.2° (Epoch: 27 September)

Date Brightness Start Highest point End Pass type
(mag) Time Alt. Az. Time Alt. Az. Time Alt. Az.
27 Sep 9.8 07:50:52 10° ENE 07:52:58 15° E 07:55:02 10° SE visible
29 Sep 6.6 08:30:38 10° NNE 08:34:07 82° E 08:37:34 10° S visible
30 Sep 8.8 08:05:11 10° NE 08:08:08 26° E 08:11:05 10° SSE visible
02 Oct 6.6 08:45:55 10° N 08:49:16 50° WNW 08:52:36 10° SSW visible
03 Oct 7.5 08:19:56 10° NNE 08:23:17 50° E 08:26:37 10° S visible
04 Oct 9.6 07:54:55 10° ENE 07:57:18 18° E 07:59:40 10° SE visible
06 Oct 6.4 08:34:58 10° N 08:38:23 81° WNW 08:41:49 10° SSW visible
